Howe Sound: Past 24 Hour Conditions

 

Victoria Gonzales

05:00 AM PDT 22 October 2014
This table is a summary of hourly weather conditions for the past 24 hours.
Date / Time
(PDT)
Wind(knots) Conditions Visibility(km) Pressure(kPa) Air tempC) Relative humidity(%) Dew pointC)
22 October 2014
5:00 SSE 10 gust 16 N/A N/A 100.1 12 90 10
4:00 S 11 gust 20 N/A N/A 100.1 12 92 10
3:00 SSE 18 gust 28 N/A N/A 100.0 12 89 10
2:00 SSE 24 gust 39 N/A N/A 100.0 12 87 10
1:00 SSE 26 gust 39 N/A N/A 100.0 13 84 10
0:00 SSE 27 gust 40 N/A N/A 100.0 13 83 10
21 October 2014
23:00 SSE 21 gust 37 N/A N/A 100.2 13 85 10
22:00 SSE 27 gust 37 N/A N/A 100.2 13 86 10
21:00 SSE 20 gust 28 N/A N/A 100.4 13 85 10
20:00 SE 16 gust 23 N/A N/A 100.5 12 89 11
19:00 SSE 11 gust 17 N/A N/A 100.7 12 90 11
18:00 ESE 8 N/A N/A 100.8 12 90 11
17:00 SSE 6 N/A N/A 100.8 13 87 11
16:00 SE 7 N/A N/A 100.9 13 85 11
15:00 ESE 5 N/A N/A 100.9 16 68 10
14:00 NNE 1 N/A N/A 101.0 15 75 11
13:00 E 5 N/A N/A 101.0 15 78 11
12:00 E 4 N/A N/A 101.1 13 85 11
11:00 SE 6 N/A N/A 101.1 12 90 10
10:00 SSE 6 N/A N/A 101.1 13 90 11
9:00 SE 7 N/A N/A 101.0 11 96 10
8:00 S 3 N/A N/A 100.9 11 97 10
7:00 WSW 7 N/A N/A 100.9 11 98 10
6:00 SSW 5 N/A N/A 100.9 11 98 11
5:00 S 4 N/A N/A 100.8 11 98 11
 
Map of Pacific - South Coast marine weather areas Tsawwassen Ferry Terminal South Nomad - 46036 Sentry Shoal - 46131 South Brooks - 46132 Halibut Bank - 46146 South Moresby - 46147 South Hecate Strait - 46185 West Sea Otter - 46204 La Perouse Bank - 46206 East Dellwood - 46207 Discovery Island Esquimalt Harbour Kelp Reefs Malahat Race Rocks Lightstation Saturna Island Sheringham Point University of Victoria Victoria Gonzales Victoria Int'l Airport Ballenas Islands Campbell River Airport Comox Airport Entrance Island Fanny Island Nanaimo Airport Port Hardy Airport Sisters Islets Estevan Point Sartine Island Solander Island Tofino Airport Grief Point Powell River Airport Sechelt Cape St.James Bella Bella Airport Bella Coola Airport Cathedral Point Herbert Island Point Atkinson Sand Heads Lightstation Vancouver Harbour Vancouver Int'l Airport West Vancouver Port Alberni Howe Sound - Pam Rocks Squamish Airport